INMARSAT 3-F1

Last updated on Sept. 20, 2020, 5:45 a.m. UTC

1 23839U 96020A   20263.58577663  .00000078  00000-0  00000-0 0  9997
2 23839   6.2553  61.7964 0006208 105.8946 270.6546  0.99983776 89296
UTC
Height (km)
Latitude
Longitude
Inclination
Orbital Period
UTC large
Height (km)
Speed (km/s)
/
Latitude / Longitude
Inclination (degrees)
Orbital Period (minutes)
Azimuth
Elevation
Range (km)
Doppler Factor
iOS Compass Heading
iOS Angle

Next 30 passes for location: Hong Kong

Rise time Rise Azimuth (degrees) Set time Set Azimuth (degrees) Duration Max altitude (degrees)

No matching passes for this satellites